リニア彗星

P/2000 R2 ( LINEAR )

English version
Home page
Updated on November 27, 2000

---------------------------------------------------------------------

・ プロフィール

発見日 2000年9月3日
発見光度 18.7等
発見者 Lincoln Laboratory Near-Earth Asteroid Research project

・ 軌道要素

T 2000 Sept. 12.7665 TT                                 Marsden
q   1.392287             (2000.0)            P               Q
n   0.1574692      Peri.  147.2011      +0.9031012      +0.4293667
a   3.396297       Node   187.3825      -0.4051478      +0.8463233
e   0.590057       Incl.    3.2336      -0.1423500      +0.3152477
P   6.26
From 35 observations 2000 Sept. 3-18.

・ 星図

・ 光度変化

        m1 = 17.5 + 5 logΔ + 15.0 log r

---------------------------------------------------------------------

軌道要素は Dr. Brian G. Marsden の計算によるもので、 M.P.E.C. 2000-S04 に掲載されたものです。
星図は StellaNavigator Ver.2.0 for Windows (アストロアーツ 編著 / アスキー出版局刊) で作成したものです。
光度グラフはComet for Windowsで作成したものです。

---------------------------------------------------------------------

Copyright(C) Seiichi Yoshida (comet@aerith.net). All rights reserved.